TIANTONG-1 1 (41725 NORAD) Tracking and Keplerian Element Data

This shows tracking and keplerian element data for the satellite.

Feedback or suggestion? Click here.




ElementValue
Catalog41725
NameTIANTONG-1 1
Epoch Orbit728
Epoch Day198.9343344
Epoch Year2018
RAAN326.5322
Inclination4.0153
Eccentricity0.0002328
Argument of Perigee67.5364
Mean Anonmoly339.3187
Mean Motion1.00267787
Decay Rate-3.34E-06
L11 41725U 16048A 18198.93433440 -.00000334 00000-0 00000-0 0 9996
L22 41725 4.0153 326.5322 0002328 67.5364 339.3187 1.00267787 7282

Live tracking and technical data element details for TIANTONG-1 1 (NORAD 41725). TIANTONG-1 1 can be tracked NOW for your location showing map with azimuth and elevation plus other details from your city location.

Track the satellite on the map from your city or location and see movement details for azimuth, elevation, latitude, longitude, range, height, and movement on the map or in text.







IsCatalogInMostPopularTable: catalog: 41725, numindb: 151
Update: records affected: 1



GetName: 41725 TIANTONG-1 1

Hit Count: updated at: Thu, 19 Jul 2018 21:29:35 GMT